Cedar City, UT

1:32 AM MDT on July 27, 2017 (GMT -0600)
Cedar City Regional

Weather History for KCDC - January, 2014

Change the Weather History Date:

Wednesday, January 29, 2014

  Actual Average Record
Temperature  
Mean Temperature 40 °F 30 °F  
Max Temperature 59 °F 43 °F 62 °F (1986)
Min Temperature 20 °F 18 °F -19 °F (1949)
Degree Days  
Heating Degree Days 25 35  
Month to date heating degree days 852 1044  
Since 1 July heating degree days 3707 3606  
Cooling Degree Days 0 0  
Month to date cooling degree days 0 0  
Year to date cooling degree days 0 0  
Moisture  
Dew Point 20 °F    
Average Humidity 50    
Maximum Humidity 74    
Minimum Humidity 26    
Precipitation  
Precipitation 0.00 in 0.03 in 0.48 in (1980)
Month to date precipitation 0.00 0.80  
Year to date precipitation 0.00 0.80  
Sea Level Pressure  
Sea Level Pressure 30.03 in    
Wind  
Wind Speed 7 mph (SSW)    
Max Wind Speed 23 mph    
Max Gust Speed 31 mph    
Visibility 10 miles    
Events      
T = Trace of Precipitation, MM = Missing Value Source: NWS Daily Summary

Daily Weather History Graph

Daily Weather History Graph

Search for Another Location

Airport or City:

Trip Planner

Search our weather history database for the weather conditions in past years. The results will help you decide how hot, cold, wet, or windy it might be!

Date:

Astronomy

Jan. 29, 2014 Rise Set
Actual Time 7:38 AM MST 5:52 PM MST
Civil Twilight 7:10 AM MST 6:20 PM MST
Nautical Twilight 6:39 AM MST 6:52 PM MST
Astronomical Twilight 6:08 AM MST 7:23 PM MST
Moon 6:18 AM MST (1/29) 4:57 PM MST (1/29)
Length of Visible Light 11h 09m
Length of Day
10h 14m
Waning Crescent, 2% of the Moon is Illuminated
Jan 29
Waning Crescent
Jan 30
New
Feb 6
First Quarter
Feb 14
Full
Feb 22
Last Quarter

Hourly Weather History & Observations

Time (MST) Temp. Windchill Dew Point Humidity Pressure Visibility Wind Dir Wind Speed Gust Speed Precip Events Conditions
12:53 AM 24.1 °F - 15.1 °F 69% 30.20 in 10.0 mi Calm Calm - N/A   Clear
1:53 AM 21.9 °F 14.5 °F 14.0 °F 72% 30.19 in 10.0 mi East 5.8 mph - N/A   Clear
2:53 AM 21.0 °F - 14.0 °F 74% 30.18 in 10.0 mi Calm Calm - N/A   Clear
3:53 AM 24.1 °F 19.7 °F 17.1 °F 75% 30.14 in 10.0 mi NNW 3.5 mph - N/A   Clear
4:53 AM 25.0 °F - 17.1 °F 72% 30.15 in 10.0 mi Calm Calm - N/A   Clear
5:53 AM 27.0 °F 23.0 °F 16.0 °F 63% 30.15 in 10.0 mi South 3.5 mph - N/A   Scattered Clouds
6:53 AM 26.1 °F 21.9 °F 17.1 °F 69% 30.17 in 10.0 mi East 3.5 mph - N/A   Clear
7:53 AM 30.0 °F 24.1 °F 15.1 °F 54% 30.18 in 10.0 mi NNE 5.8 mph - N/A   Overcast
8:53 AM 33.1 °F - 17.1 °F 52% 30.18 in 10.0 mi Calm Calm - N/A   Overcast
9:53 AM 35.1 °F 31.0 °F 17.1 °F 48% 30.17 in 10.0 mi WSW 4.6 mph - N/A   Overcast
10:53 AM 41.0 °F 37.1 °F 17.1 °F 38% 30.14 in 10.0 mi South 5.8 mph - N/A   Unknown
11:53 AM 52.0 °F - 21.0 °F 30% 30.07 in 10.0 mi Variable 3.5 mph - N/A   Clear
12:53 PM 57.0 °F - 30.0 °F 36% 30.02 in 10.0 mi Variable 3.5 mph - N/A   Partly Cloudy
1:53 PM 57.0 °F - 28.9 °F 34% 29.99 in 10.0 mi South 3.5 mph - N/A   Clear
2:53 PM 57.0 °F - 27.0 °F 32% 29.95 in 10.0 mi SSW 9.2 mph - N/A   Clear
3:53 PM 52.0 °F - 19.9 °F 28% 29.92 in 10.0 mi SW 13.8 mph - N/A   Clear
4:53 PM 51.1 °F - 21.9 °F 32% 29.95 in 10.0 mi South 11.5 mph - N/A   Clear
5:53 PM 46.0 °F 42.5 °F 23.0 °F 40% 29.94 in 10.0 mi SW 6.9 mph - N/A   Clear
6:53 PM 45.0 °F 42.6 °F 23.0 °F 42% 29.93 in 10.0 mi SW 4.6 mph - N/A   Overcast
7:53 PM 45.0 °F 40.6 °F 24.1 °F 44% 29.89 in 10.0 mi SSW 8.1 mph - N/A   Overcast
8:53 PM 46.0 °F 40.2 °F 21.9 °F 39% 29.86 in 10.0 mi SSW 12.7 mph - N/A   Overcast
9:53 PM 44.1 °F 36.8 °F 21.0 °F 40% 29.84 in 10.0 mi SSW 16.1 mph - N/A   Overcast
10:53 PM 43.0 °F 34.8 °F 21.0 °F 42% 29.79 in 10.0 mi SW 18.4 mph 26.5 mph N/A   Overcast
11:53 PM 46.0 °F 38.5 °F 23.0 °F 40% 29.73 in 10.0 mi SSW 19.6 mph 28.8 mph N/A   Overcast